Location: *
(41.3833°S, 177.8333°W)
Time: 19:52:59
(UTC+00:00)

GP-B - Pass Details

Date: 01 April 2020
Orbit: 632 x 634 km, 89.8° (Epoch: 31 May)

Event Time Altitude Azimuth Distance (km) Brightness Sun altitude
Rises 17:20:58 0° 17° (NNE) 2,925 6.7 -9.6°
Reaches altitude 10° 17:23:13 10° 23° (NNE) 2,025 6.0 -9.2°
Maximum altitude 17:27:31 49° 97° (E) 836 4.3 -8.4°
Drops below altitude 10° 17:31:51 10° 171° (S) 2,053 5.9 -7.6°
Sets 17:34:09 0° 176° (S) 2,969 6.6 -7.2°
